Location: Nantong Television Tower
(32.0188°N, 120.8512°E)
Time: 13:14:42
(UTC+08:00)

Vanguard 3 - Visible Passes

Search period start: 27 March 2015 00:00
Search period end: 06 April 2015 00:00
Orbit: 510 x 3272 km, 33.3° (Epoch: 26 March)

Date Brightness Start Highest point End Pass type
(mag) Time Alt. Az. Time Alt. Az. Time Alt. Az.
27 Mar 10.2 00:40:05 47° E 00:40:05 47° E 00:49:31 10° ENE visible
27 Mar 9.5 02:44:42 57° W 02:50:02 86° N 03:03:17 10° E visible
27 Mar 9.1 04:49:19 11° WNW 05:06:02 82° SSW 05:15:34 10° ESE visible
27 Mar 10.7 20:48:32 10° S 20:52:41 19° S 20:52:41 19° S visible
27 Mar 10.9 23:30:53 23° E 23:30:53 23° E 23:35:13 10° ENE visible
28 Mar 9.7 01:35:29 83° E 01:35:29 83° E 01:50:01 10° E visible
28 Mar 9.4 03:40:07 30° W 03:51:34 88° N 04:03:14 10° E visible
28 Mar 10.7 19:39:59 10° SSE 19:45:00 15° SE 19:45:00 15° SE visible
28 Mar 10.7 21:45:42 10° SSW 22:21:39 - ENE 21:49:46 22° SSW visible
29 Mar 10.3 00:26:16 47° E 00:26:16 47° E 00:36:10 10° ENE visible
29 Mar 9.6 02:30:53 58° W 02:36:16 85° N 02:50:20 10° E visible
29 Mar 9.3 04:35:30 11° WNW 04:52:31 77° SSW 05:02:45 10° ESE visible
29 Mar 10.4 20:34:11 10° SSW 20:42:14 28° SSE 20:42:14 28° SSE visible
29 Mar 10.9 22:44:42 10° SW 23:17:01 23° E 23:21:38 10° ENE visible
30 Mar 9.8 01:21:38 82° ENE 01:21:38 82° ENE 01:36:49 10° E visible
30 Mar 9.5 03:26:15 31° W 03:37:54 89° SSW 03:50:21 10° ESE visible
30 Mar 10.5 19:24:46 10° SSE 19:32:56 18° SE 19:34:50 18° SE visible
30 Mar 10.3 21:31:46 10° SW 22:07:46 - ENE 21:39:38 36° SSW visible
31 Mar 10.3 00:12:22 47° E 00:12:22 47° E 00:22:43 10° ENE visible
31 Mar 9.7 02:17:00 59° W 02:22:25 86° N 02:37:17 10° E visible
31 Mar 9.4 04:21:37 12° WNW 04:38:52 72° SSW 04:49:48 10° ESE visible
31 Mar 10.1 20:20:06 10° SSW 20:32:24 36° SE 20:32:24 36° SE visible
31 Mar 10.5 22:30:58 10° SW 23:03:08 23° ENE 23:07:56 10° ENE visible
01 Apr 9.8 01:07:45 81° ENE 01:07:45 81° ENE 01:23:33 10° E visible
01 Apr 9.6 03:12:22 32° W 03:24:07 85° SSW 03:37:20 10° ESE visible
01 Apr 9.5 05:23:01 10° WNW 05:38:50 47° SW 05:48:19 10° SSE visible
01 Apr 10.4 19:10:08 10° S 19:18:53 21° SE 19:25:20 18° ESE visible
01 Apr 9.8 21:18:02 10° SW 21:53:54 - ENE 21:30:08 54° S visible
01 Apr 10.3 23:31:19 10° WSW 23:58:31 47° E 00:09:10 10° E visible
02 Apr 9.7 02:03:08 60° W 02:08:29 87° N 02:24:08 10° E visible
02 Apr 9.5 04:07:45 13° WNW 04:25:01 66° SSW 04:36:43 10° SE visible
02 Apr 9.9 20:06:15 10° SSW 20:18:26 41° SE 20:23:11 36° ESE visible
02 Apr 10.0 22:17:23 10° WSW 22:49:20 23° ENE 22:54:07 10° ENE visible
03 Apr 9.8 00:32:29 10° W 00:53:57 80° ENE 01:10:11 10° E visible
03 Apr 9.6 02:58:35 33° W 03:10:11 81° SSW 03:24:14 10° ESE visible
03 Apr 9.7 05:08:50 10° WNW 05:24:56 43° SW 05:35:00 10° SSE visible
03 Apr 10.2 18:55:55 10° S 19:04:50 25° SE 19:16:20 13° E visible
03 Apr 9.7 21:04:28 10° SW 21:18:40 63° SSE 21:21:10 59° ESE visible
03 Apr 10.4 23:17:46 10° WSW 23:44:51 45° E 23:55:30 10° E visible
04 Apr 9.8 01:49:28 63° W 01:54:26 89° N 02:10:53 10° ESE visible
04 Apr 9.6 03:54:06 15° WNW 04:11:01 61° SSW 04:23:28 10° SE visible
04 Apr 9.7 19:52:35 10° SSW 20:04:16 45° SE 20:14:20 26° E visible
04 Apr 9.7 22:03:57 10° WSW 22:35:51 21° ENE 22:40:10 10° ENE visible
05 Apr 9.9 00:18:50 10° W 00:40:30 76° ENE 00:56:43 10° E visible
05 Apr 9.7 02:45:08 36° W 02:56:06 77° SSW 03:10:56 10° ESE visible
05 Apr 9.9 04:54:43 10° WNW 05:10:54 38° SW 05:21:29 10° SSE visible
05 Apr 10.0 18:41:58 10° S 18:50:48 28° SE 19:04:14 10° E visible
05 Apr 9.6 20:51:03 10° SW 21:04:30 68° SSE 21:12:16 43° E visible
